Regional Weather Roundup
Issued by NWS

Home | Current Version | Previous Version | Graphics & Text | Print | Product List | Glossary On
Versions: 1 2 3 4 5 6 7 8 9 10 11 12 13 14 15 16 17 18 19 20 21 22 23 24 25 26 27 28 29 30 31 32 33 34 35 36 37 38 39 40 41 42 43 44 45 46 47 48 49 50
000
ASUS43 KDMX 271607
RWRIA

WEATHER ROUNDUP FOR IOWA
NATIONAL WEATHER SERVICE DES MOINES IA
1100 AM CDT WED MAY 27 2015

NOTE: "FAIR" INDICATES FEW OR NO CLOUDS BELOW 12,000 FEET WITH NO
SIGNIFICANT WEATHER AND/OR OBSTRUCTIONS TO VISIBILITY.

* - THESE STATIONS ARE NOT NWS STATIONS...THUS NOT UNDER NWS
QUALITY CONTROL.  THEY ALSO DO NOT REPORT WEATHER SUCH
AS PRECIPITATION OR FOG.

IAZ001>003-012>014-020>022-031>034-043>046-271700-
   NORTHWEST IOWA

CITY           SKY/WX    TMP DP  RH WIND       PRES   REMARKS
CARROLL *      SUNNY     73  59  60 W7G14     30.04S
CHEROKEE *     SUNNY     72  61  68 SW7       30.03R
DENISON *      SUNNY     70  64  83 VRB6      30.04S
LE MARS *      SUNNY     75  55  50 VRB5      30.04S
ORANGE CITY *  SUNNY     72  55  56 W5        30.03S
SHELDON *      SUNNY     73  66  78 W9        30.01S
SIOUX CITY     SUNNY     73  56  54 CALM      30.04S
SPENCER        SUNNY     74  59  59 W13       30.01R
STORM LAKE *   SUNNY     72  59  64 W12       30.05R
$$

IAZ055>058-069>071-079>083-090>094-271700-
   SOUTHWEST IOWA

CITY           SKY/WX    TMP DP  RH WIND       PRES   REMARKS
ATLANTIC *     SUNNY     72  59  64 VRB6      30.06R
AUDUBON *      SUNNY     73  59  60 W5        30.05F
CLARINDA *       N/A     73  57  56 CALM      30.08S
COUNCIL BLFS * SUNNY     73  59  60 W5        30.07R
CRESTON *      SUNNY     72  55  56 NW7       30.07R
HARLAN  *      SUNNY     72  66  83 NW8       30.09S
LAMONI         SUNNY     76  58  53 CALM      30.07R
RED OAK *      SUNNY     73  59  60 VRB5      30.07R
SHENANDOAH *   SUNNY     75  59  57 W5        30.07S
$$

IAZ047>049-059>061-072>074-084-271700-
   CENTRAL IOWA

CITY           SKY/WX    TMP DP  RH WIND       PRES   REMARKS
AMES           SUNNY     73  57  57 W7        30.03R
ANKENY *       SUNNY     72  57  60 NW5       30.03S
CHARITON *     SUNNY     72  57  60 VRB5      30.06R
DES MOINES     SUNNY     74  56  53 CALM      30.04R
GRINNELL*      SUNNY     68  59  73 W3        30.05R
KNOXVILLE *    SUNNY     70  57  64 NW7       30.04R
MARSHALLTOWN   SUNNY     70  60  70 W6        30.03R
PELLA *        SUNNY     70  64  83 W6        30.06R
PERRY *          N/A     72  55  56 W5        30.04S
$$

IAZ004>006-015-016-023>025-035-036-271700-
   NORTH CENTRAL IOWA

CITY           SKY/WX    TMP DP  RH WIND       PRES   REMARKS
ALGONA *       SUNNY     72  61  68 SW13      30.01S
CLARION *      SUNNY     72 -38   1 W12       30.02R
ESTHERVILLE    SUNNY     72  57  59 W7        30.00R
FORT DODGE *   SUNNY     72  57  60 SW12      30.03S
MASON CITY     SUNNY     72  58  61 SW13      30.01R
FOREST CITY *  SUNNY     70  55  60 W7        30.00R
IOWA FALLS *     N/A     72  57  60 SW6       30.04R
$$

IAZ007>011-017>019-026>030-037>042-050>054-066-271700-
   NORTHEAST IOWA

CITY           SKY/WX    TMP DP  RH WIND       PRES   REMARKS
CEDAR RAPIDS   MOSUNNY   67  59  75 SW7       30.03R
CHARLES CITY * SUNNY     70  61  73 W6        30.01R
CLINTON *      MOSUNNY   68  57  68 W17       30.03R
DECORAH *      SUNNY     68  57  68 VRB6      29.99R
DUBUQUE        MOSUNNY   67  58  72 W10       30.01R
MONTICELLO *   MOSUNNY   66  61  82 W7G15     30.02R
OELWEIN *      MOSUNNY   66  61  82 W7        30.01S
WATERLOO       SUNNY     70  59  68 VRB6      30.01R
$$

IAZ064-065-067-068-078-271700-
   EAST CENTRAL IOWA

CITY           SKY/WX    TMP DP  RH WIND       PRES   REMARKS
DAVENPORT      MOSUNNY   69  59  70 W16       30.02R
MT. PLEASANT * SUNNY     68  57  68 W9        30.04R
MUSCATINE *    PTSUNNY   70  59  68 NW12G21   30.03S
QUAD CITIES    MOSUNNY   71  58  63 W10       30.02R
$$

IAZ062-063-075>077-085>089-095>099-271700-
   SOUTHEAST IOWA

CITY           SKY/WX    TMP DP  RH WIND       PRES   REMARKS
BURLINGTON     PTSUNNY   69  59  70 NW9       30.04R
FAIRFIELD *    MOSUNNY   68  59  73 NW10      30.05R
FORT MADISON * PTSUNNY   68  59  73 NW9G16    30.06R
KEOKUK *       PTSUNNY   70  59  68 NW8       30.05R
OSKALOOSA *      N/A     68  59  73 NW5       30.06R
CENTERVILLE *  SUNNY     70  70 100 W9        30.08R
OTTUMWA        SUNNY     70  60  70 NW10      30.05R
WASHINGTON *   SUNNY     68  59  73 W9        30.06R
$$

ABBREVIATIONS USED IN REMARKS
   TC - TEMPERATURES IN CELSIUS
  WCI - WIND CHILL INDEX
   HX - HEAT INDEX
  VSB - VISIBILITY
$$



USA.gov is the U.S. government's official web portal to all federal, state and local government web resources and services.